Year,Month,Day,Hour,Minute,Value (Times are PST for temperature in C)
2009,06,27,00,00,11.40
2009,06,27,00,01,11.40
2009,06,27,00,02,11.40
2009,06,27,00,03,11.40
2009,06,27,00,04,11.40
2009,06,27,00,05,11.30
2009,06,27,00,06,11.30
2009,06,27,00,07,11.30
2009,06,27,00,08,11.30
2009,06,27,00,09,11.30
2009,06,27,00,10,11.30
2009,06,27,00,11,11.20
2009,06,27,00,12,11.20
2009,06,27,00,13,11.20
2009,06,27,00,14,11.20
2009,06,27,00,15,11.10
2009,06,27,00,16,11.10
2009,06,27,00,17,11.00
2009,06,27,00,18,11.00
2009,06,27,00,19,10.90
2009,06,27,00,20,10.90
2009,06,27,00,21,10.90
2009,06,27,00,22,10.80
2009,06,27,00,23,10.80
2009,06,27,00,24,10.80
2009,06,27,00,25,10.80
2009,06,27,00,26,10.80
2009,06,27,00,27,10.80
2009,06,27,00,28,10.80
2009,06,27,00,29,10.70
2009,06,27,00,30,10.70
2009,06,27,00,31,10.70
2009,06,27,00,32,10.70
2009,06,27,00,33,10.70
2009,06,27,00,34,10.70
2009,06,27,00,35,10.70
2009,06,27,00,36,10.70
2009,06,27,00,37,10.70
2009,06,27,00,38,10.80
2009,06,27,00,39,10.80
2009,06,27,00,40,10.80
2009,06,27,00,41,10.90
2009,06,27,00,42,10.90
2009,06,27,00,43,10.90
2009,06,27,00,44,10.80
2009,06,27,00,45,10.80
2009,06,27,00,46,10.80
2009,06,27,00,47,10.70
2009,06,27,00,48,10.70
2009,06,27,00,49,10.70
2009,06,27,00,50,10.70
2009,06,27,00,51,10.60
2009,06,27,00,52,10.60
2009,06,27,00,53,10.60
2009,06,27,00,54,10.60
2009,06,27,00,55,10.50
2009,06,27,00,56,10.50
2009,06,27,00,57,10.40
2009,06,27,00,58,10.40
2009,06,27,00,59,10.40
2009,06,27,01,00,10.40
2009,06,27,01,01,10.30
2009,06,27,01,02,10.30
2009,06,27,01,03,10.30
2009,06,27,01,04,10.20
2009,06,27,01,05,10.20
2009,06,27,01,06,10.20
2009,06,27,01,07,10.20
2009,06,27,01,08,10.20
2009,06,27,01,09,10.20
2009,06,27,01,10,10.20
2009,06,27,01,11,10.20
2009,06,27,01,12,10.20
2009,06,27,01,13,10.20
2009,06,27,01,14,10.20
2009,06,27,01,15,10.20
2009,06,27,01,16,10.20
2009,06,27,01,17,10.10
2009,06,27,01,18,10.10
2009,06,27,01,19,10.10
2009,06,27,01,20,10.10
2009,06,27,01,21,10.10
2009,06,27,01,22,10.10
2009,06,27,01,23,10.10
2009,06,27,01,24,10.10
2009,06,27,01,25,10.00
2009,06,27,01,26,10.00
2009,06,27,01,27,10.00
2009,06,27,01,28,10.00
2009,06,27,01,29,10.00
2009,06,27,01,30,10.00
2009,06,27,01,31,9.90
2009,06,27,01,32,9.90
2009,06,27,01,33,9.90
2009,06,27,01,34,9.90
2009,06,27,01,35,9.90
2009,06,27,01,36,9.90
2009,06,27,01,37,9.90
2009,06,27,01,38,9.90
2009,06,27,01,39,9.80
2009,06,27,01,40,9.80
2009,06,27,01,41,9.80
2009,06,27,01,42,9.80
2009,06,27,01,43,9.80
2009,06,27,01,44,9.80
2009,06,27,01,45,9.80
2009,06,27,01,46,9.80
2009,06,27,01,47,9.80
2009,06,27,01,48,9.80
2009,06,27,01,49,9.80
2009,06,27,01,50,9.80
2009,06,27,01,51,9.80
2009,06,27,01,52,9.80
2009,06,27,01,53,9.80
2009,06,27,01,54,9.80
2009,06,27,01,55,9.80
2009,06,27,01,56,9.80
2009,06,27,01,57,9.80
2009,06,27,01,58,9.70
2009,06,27,01,59,9.70
2009,06,27,02,00,9.70
2009,06,27,02,01,9.70
2009,06,27,02,02,9.70
2009,06,27,02,03,9.70
2009,06,27,02,04,9.70
2009,06,27,02,05,9.70
2009,06,27,02,06,9.70
2009,06,27,02,07,9.70
2009,06,27,02,08,9.70
2009,06,27,02,09,9.70
2009,06,27,02,10,9.70
2009,06,27,02,11,9.70
2009,06,27,02,12,9.60
2009,06,27,02,13,9.60
2009,06,27,02,14,9.60
2009,06,27,02,15,9.60
2009,06,27,02,16,9.60
2009,06,27,02,17,9.60
2009,06,27,02,18,9.60
2009,06,27,02,19,9.60
2009,06,27,02,20,9.60
2009,06,27,02,21,9.60
2009,06,27,02,22,9.60
2009,06,27,02,23,9.60
2009,06,27,02,24,9.60
2009,06,27,02,25,9.60
2009,06,27,02,26,9.60
2009,06,27,02,27,9.60
2009,06,27,02,28,9.60
2009,06,27,02,29,9.60
2009,06,27,02,30,9.60
2009,06,27,02,31,9.60
2009,06,27,02,32,9.50
2009,06,27,02,33,9.50
2009,06,27,02,34,9.50
2009,06,27,02,35,9.50
2009,06,27,02,36,9.40
2009,06,27,02,37,9.40
2009,06,27,02,38,9.40
2009,06,27,02,39,9.30
2009,06,27,02,40,9.30
2009,06,27,02,41,9.30
2009,06,27,02,42,9.20
2009,06,27,02,43,9.20
2009,06,27,02,44,9.20
2009,06,27,02,45,9.10
2009,06,27,02,46,9.10
2009,06,27,02,47,9.10
2009,06,27,02,48,9.10
2009,06,27,02,49,9.00
2009,06,27,02,50,9.00
2009,06,27,02,51,9.10
2009,06,27,02,52,9.10
2009,06,27,02,53,9.10
2009,06,27,02,54,9.10
2009,06,27,02,55,9.10
2009,06,27,02,56,9.10
2009,06,27,02,57,9.10
2009,06,27,02,58,9.00
2009,06,27,02,59,9.00
2009,06,27,03,00,9.00
2009,06,27,03,01,9.00
2009,06,27,03,02,8.90
2009,06,27,03,03,8.90
2009,06,27,03,04,8.90
2009,06,27,03,05,8.90
2009,06,27,03,06,8.90
2009,06,27,03,07,8.90
2009,06,27,03,08,8.80
2009,06,27,03,09,8.80
2009,06,27,03,10,8.80
2009,06,27,03,11,8.80
2009,06,27,03,12,8.80
2009,06,27,03,13,8.80
2009,06,27,03,14,8.80
2009,06,27,03,15,8.80
2009,06,27,03,16,8.80
2009,06,27,03,17,8.70
2009,06,27,03,18,8.70
2009,06,27,03,19,8.70
2009,06,27,03,20,8.70
2009,06,27,03,21,8.70
2009,06,27,03,22,8.60
2009,06,27,03,23,8.60
2009,06,27,03,24,8.60
2009,06,27,03,25,8.60
2009,06,27,03,26,8.60
2009,06,27,03,27,8.60
2009,06,27,03,28,8.60
2009,06,27,03,29,8.60
2009,06,27,03,30,8.50
2009,06,27,03,31,8.50
2009,06,27,03,32,8.50
2009,06,27,03,33,8.50
2009,06,27,03,34,8.40
2009,06,27,03,35,8.40
2009,06,27,03,36,8.40
2009,06,27,03,37,8.40
2009,06,27,03,38,8.30
2009,06,27,03,39,8.30
2009,06,27,03,40,8.30
2009,06,27,03,41,8.30
2009,06,27,03,42,8.30
2009,06,27,03,43,8.20
2009,06,27,03,44,8.20
2009,06,27,03,45,8.20
2009,06,27,03,46,8.20
2009,06,27,03,47,8.20
2009,06,27,03,48,8.10
2009,06,27,03,49,8.10
2009,06,27,03,50,8.10
2009,06,27,03,51,8.10
2009,06,27,03,52,8.00
2009,06,27,03,53,8.00
2009,06,27,03,54,8.00
2009,06,27,03,55,8.00
2009,06,27,03,56,7.90
2009,06,27,03,57,8.00
2009,06,27,03,58,7.90
2009,06,27,03,59,7.90
2009,06,27,04,00,7.90
2009,06,27,04,01,7.90
2009,06,27,04,02,7.90
2009,06,27,04,03,7.90
2009,06,27,04,05,7.90
2009,06,27,04,06,7.90
2009,06,27,04,07,7.90
2009,06,27,04,08,7.90
2009,06,27,04,09,7.90
2009,06,27,04,10,7.90
2009,06,27,04,11,7.90
2009,06,27,04,12,7.90
2009,06,27,04,13,7.90
2009,06,27,04,14,7.90
2009,06,27,04,15,7.90
2009,06,27,04,16,7.80
2009,06,27,04,17,7.80
2009,06,27,04,18,7.80
2009,06,27,04,19,7.80
2009,06,27,04,20,7.80
2009,06,27,04,21,7.80
2009,06,27,04,22,7.80
2009,06,27,04,23,7.70
2009,06,27,04,24,7.70
2009,06,27,04,25,7.70
2009,06,27,04,26,7.70
2009,06,27,04,27,7.70
2009,06,27,04,28,7.70
2009,06,27,04,29,7.60
2009,06,27,04,30,7.60
2009,06,27,04,31,7.60
2009,06,27,04,32,7.60
2009,06,27,04,33,7.60
2009,06,27,04,34,7.60
2009,06,27,04,35,7.50
2009,06,27,04,36,7.50
2009,06,27,04,37,7.50
2009,06,27,04,38,7.50
2009,06,27,04,39,7.50
2009,06,27,04,40,7.50
2009,06,27,04,41,7.50
2009,06,27,04,42,7.50
2009,06,27,04,43,7.50
2009,06,27,04,44,7.50
2009,06,27,04,45,7.50
2009,06,27,04,46,7.50
2009,06,27,04,47,7.40
2009,06,27,04,48,7.40
2009,06,27,04,49,7.40
2009,06,27,04,50,7.40
2009,06,27,04,51,7.40
2009,06,27,04,52,7.30
2009,06,27,04,53,7.30
2009,06,27,04,54,7.30
2009,06,27,04,55,7.30
2009,06,27,04,56,7.30
2009,06,27,04,57,7.30
2009,06,27,04,58,7.30
2009,06,27,04,59,7.30
2009,06,27,05,00,7.30
2009,06,27,05,01,7.30
2009,06,27,05,02,7.30
2009,06,27,05,03,7.20
2009,06,27,05,04,7.20
2009,06,27,05,05,7.20
2009,06,27,05,06,7.20
2009,06,27,05,07,7.20
2009,06,27,05,08,7.20
2009,06,27,05,09,7.20
2009,06,27,05,10,7.20
2009,06,27,05,11,7.20
2009,06,27,05,12,7.20
2009,06,27,05,13,7.10
2009,06,27,05,14,7.10
2009,06,27,05,15,7.10
2009,06,27,05,16,7.10
2009,06,27,05,17,7.10
2009,06,27,05,18,7.10
2009,06,27,05,19,7.10
2009,06,27,05,20,7.10
2009,06,27,05,21,7.10
2009,06,27,05,22,7.10
2009,06,27,05,23,7.10
2009,06,27,05,24,7.10
2009,06,27,05,25,7.10
2009,06,27,05,26,7.00
2009,06,27,05,27,7.00
2009,06,27,05,28,7.00
2009,06,27,05,29,7.00
2009,06,27,05,30,7.00
2009,06,27,05,31,7.00
2009,06,27,05,32,6.90
2009,06,27,05,33,6.90
2009,06,27,05,34,6.90
2009,06,27,05,35,6.90
2009,06,27,05,36,6.90
2009,06,27,05,37,6.90
2009,06,27,05,38,6.80
2009,06,27,05,39,6.80
2009,06,27,05,40,6.80
2009,06,27,05,41,6.80
2009,06,27,05,42,6.80
2009,06,27,05,43,6.80
2009,06,27,05,44,6.80
2009,06,27,05,45,6.80
2009,06,27,05,46,6.80
2009,06,27,05,47,6.80
2009,06,27,05,48,6.80
2009,06,27,05,49,6.80
2009,06,27,05,50,6.80
2009,06,27,05,51,6.90
2009,06,27,05,52,6.90
2009,06,27,05,53,6.90
2009,06,27,05,54,6.90
2009,06,27,05,55,6.90
2009,06,27,05,56,6.90
2009,06,27,05,57,6.90
2009,06,27,05,58,6.90
2009,06,27,05,59,6.90
2009,06,27,06,00,6.90
2009,06,27,06,01,6.90
2009,06,27,06,02,6.80
2009,06,27,06,03,6.80
2009,06,27,06,04,6.80
2009,06,27,06,05,6.80
2009,06,27,06,06,6.80
2009,06,27,06,07,6.80
2009,06,27,06,08,6.80
2009,06,27,06,09,6.80
2009,06,27,06,10,6.80
2009,06,27,06,11,6.80
2009,06,27,06,12,6.80
2009,06,27,06,13,6.80
2009,06,27,06,14,6.70
2009,06,27,06,15,6.70
2009,06,27,06,16,6.70
2009,06,27,06,17,6.70
2009,06,27,06,18,6.80
2009,06,27,06,19,6.80
2009,06,27,06,20,6.80
2009,06,27,06,21,6.80
2009,06,27,06,22,6.80
2009,06,27,06,23,6.90
2009,06,27,06,24,6.90
2009,06,27,06,25,6.90
2009,06,27,06,26,6.90
2009,06,27,06,27,7.00
2009,06,27,06,28,7.00
2009,06,27,06,29,7.00
2009,06,27,06,30,7.00
2009,06,27,06,31,7.00
2009,06,27,06,32,7.10
2009,06,27,06,33,7.10
2009,06,27,06,34,7.20
2009,06,27,06,35,7.20
2009,06,27,06,36,7.30
2009,06,27,06,37,7.30
2009,06,27,06,38,7.40
2009,06,27,06,39,7.50
2009,06,27,06,40,7.60
2009,06,27,06,41,7.70
2009,06,27,06,42,7.80
2009,06,27,06,43,7.90
2009,06,27,06,44,8.10
2009,06,27,06,45,8.20
2009,06,27,06,46,8.30
2009,06,27,06,47,8.30
2009,06,27,06,48,8.40
2009,06,27,06,49,8.50
2009,06,27,06,50,8.50
2009,06,27,06,51,8.60
2009,06,27,06,52,8.70
2009,06,27,06,53,8.80
2009,06,27,06,54,8.90
2009,06,27,06,55,9.00
2009,06,27,06,56,9.10
2009,06,27,06,57,9.20
2009,06,27,06,58,9.40
2009,06,27,06,59,9.50
2009,06,27,07,00,9.60
2009,06,27,07,01,9.70
2009,06,27,07,02,9.80
2009,06,27,07,03,9.90
2009,06,27,07,04,9.90
2009,06,27,07,05,10.00
2009,06,27,07,06,10.10
2009,06,27,07,07,10.20
2009,06,27,07,08,10.30
2009,06,27,07,09,10.30
2009,06,27,07,10,10.40
2009,06,27,07,11,10.50
2009,06,27,07,12,10.60
2009,06,27,07,13,10.70
2009,06,27,07,14,10.80
2009,06,27,07,15,10.90
2009,06,27,07,16,11.00
2009,06,27,07,17,11.00
2009,06,27,07,18,11.10
2009,06,27,07,19,11.20
2009,06,27,07,20,11.30
2009,06,27,07,21,11.40
2009,06,27,07,22,11.50
2009,06,27,07,23,11.60
2009,06,27,07,24,11.70
2009,06,27,07,25,11.80
2009,06,27,07,26,11.90
2009,06,27,07,27,12.00
2009,06,27,07,28,12.10
2009,06,27,07,29,12.30
2009,06,27,07,30,12.30
2009,06,27,07,31,12.50
2009,06,27,07,32,12.50
2009,06,27,07,33,12.60
2009,06,27,07,34,12.70
2009,06,27,07,35,12.70
2009,06,27,07,36,12.80
2009,06,27,07,37,12.80
2009,06,27,07,38,12.90
2009,06,27,07,39,13.00
2009,06,27,07,40,13.10
2009,06,27,07,41,13.10
2009,06,27,07,42,13.20
2009,06,27,07,43,13.30
2009,06,27,07,44,13.40
2009,06,27,07,45,13.50
2009,06,27,07,46,13.60
2009,06,27,07,47,13.60
2009,06,27,07,48,13.60
2009,06,27,07,49,13.70
2009,06,27,07,50,13.70
2009,06,27,07,51,13.70
2009,06,27,07,52,13.70
2009,06,27,07,53,13.80
2009,06,27,07,54,13.80
2009,06,27,07,55,13.90
2009,06,27,07,56,13.90
2009,06,27,07,57,14.00
2009,06,27,07,58,14.10
2009,06,27,07,59,14.10
2009,06,27,08,00,14.20
2009,06,27,08,01,14.20
2009,06,27,08,02,14.30
2009,06,27,08,03,14.30
2009,06,27,08,04,14.40
2009,06,27,08,05,14.40
2009,06,27,08,06,14.50
2009,06,27,08,07,14.50
2009,06,27,08,08,14.60
2009,06,27,08,09,14.60
2009,06,27,08,10,14.60
2009,06,27,08,11,14.70
2009,06,27,08,12,14.70
2009,06,27,08,13,14.70
2009,06,27,08,14,14.70
2009,06,27,08,15,14.70
2009,06,27,08,16,14.70
2009,06,27,08,17,14.80
2009,06,27,08,18,14.80
2009,06,27,08,19,14.90
2009,06,27,08,20,15.00
2009,06,27,08,21,15.00
2009,06,27,08,22,15.00
2009,06,27,08,23,15.00
2009,06,27,08,24,15.00
2009,06,27,08,25,15.00
2009,06,27,08,26,15.10
2009,06,27,08,27,15.20
2009,06,27,08,28,15.30
2009,06,27,08,29,15.40
2009,06,27,08,30,15.50
2009,06,27,08,31,15.50
2009,06,27,08,32,15.60
2009,06,27,08,33,15.70
2009,06,27,08,34,15.70
2009,06,27,08,35,15.70
2009,06,27,08,36,15.70
2009,06,27,08,37,15.70
2009,06,27,08,38,15.80
2009,06,27,08,39,15.80
2009,06,27,08,40,15.80
2009,06,27,08,41,15.70
2009,06,27,08,42,15.70
2009,06,27,08,43,15.60
2009,06,27,08,44,15.60
2009,06,27,08,45,15.50
2009,06,27,08,46,15.50
2009,06,27,08,47,15.50
2009,06,27,08,48,15.40
2009,06,27,08,49,15.50
2009,06,27,08,50,15.40
2009,06,27,08,51,15.40
2009,06,27,08,52,15.40
2009,06,27,08,53,15.30
2009,06,27,08,54,15.30
2009,06,27,08,55,15.40
2009,06,27,08,56,15.40
2009,06,27,08,57,15.40
2009,06,27,08,58,15.40
2009,06,27,08,59,15.50
2009,06,27,09,00,15.50
2009,06,27,09,01,15.60
2009,06,27,09,02,15.60
2009,06,27,09,03,15.70
2009,06,27,09,04,15.80
2009,06,27,09,05,15.80
2009,06,27,09,06,15.90
2009,06,27,09,07,15.90
2009,06,27,09,08,16.00
2009,06,27,09,09,16.00
2009,06,27,09,10,16.00
2009,06,27,09,11,16.10
2009,06,27,09,12,16.20
2009,06,27,09,13,16.20
2009,06,27,09,14,16.10
2009,06,27,09,15,16.10
2009,06,27,09,16,16.20
2009,06,27,09,17,16.20
2009,06,27,09,18,16.20
2009,06,27,09,19,16.30
2009,06,27,09,20,16.30
2009,06,27,09,21,16.20
2009,06,27,09,22,16.20
2009,06,27,09,23,16.30
2009,06,27,09,24,16.40
2009,06,27,09,25,16.40
2009,06,27,09,26,16.50
2009,06,27,09,27,16.60
2009,06,27,09,28,16.70
2009,06,27,09,29,16.80
2009,06,27,09,30,16.80
2009,06,27,09,31,16.90
2009,06,27,09,32,16.90
2009,06,27,09,33,17.00
2009,06,27,09,34,17.00
2009,06,27,09,35,17.00
2009,06,27,09,36,17.00
2009,06,27,09,37,17.10
2009,06,27,09,38,17.10
2009,06,27,09,39,17.00
2009,06,27,09,40,17.00
2009,06,27,09,41,16.90
2009,06,27,09,42,16.90
2009,06,27,09,43,16.90
2009,06,27,09,44,16.90
2009,06,27,09,45,16.90
2009,06,27,09,46,16.90
2009,06,27,09,47,17.00
2009,06,27,09,48,17.00
2009,06,27,09,49,17.00
2009,06,27,09,50,16.90
2009,06,27,09,51,16.90
2009,06,27,09,52,16.90
2009,06,27,09,53,16.90
2009,06,27,09,54,17.00
2009,06,27,09,55,17.10
2009,06,27,09,56,17.10
2009,06,27,09,57,17.20
2009,06,27,09,58,17.30
2009,06,27,09,59,17.40
2009,06,27,10,00,17.40
2009,06,27,10,01,17.50
2009,06,27,10,02,17.50
2009,06,27,10,03,17.60
2009,06,27,10,04,17.70
2009,06,27,10,05,17.80
2009,06,27,10,06,17.90
2009,06,27,10,07,18.00
2009,06,27,10,08,18.00
2009,06,27,10,09,18.00
2009,06,27,10,10,18.00
2009,06,27,10,11,18.00
2009,06,27,10,12,18.10
2009,06,27,10,13,18.10
2009,06,27,10,14,18.10
2009,06,27,10,15,18.20
2009,06,27,10,16,18.20
2009,06,27,10,17,18.20
2009,06,27,10,18,18.20
2009,06,27,10,19,18.30
2009,06,27,10,20,18.30
2009,06,27,10,21,18.30
2009,06,27,10,22,18.30
2009,06,27,10,23,18.20
2009,06,27,10,24,18.10
2009,06,27,10,25,18.00
2009,06,27,10,26,18.00
2009,06,27,10,27,17.90
2009,06,27,10,28,17.80
2009,06,27,10,29,17.70
2009,06,27,10,30,17.70
2009,06,27,10,31,17.70
2009,06,27,10,32,17.70
2009,06,27,10,33,17.70
2009,06,27,10,34,17.70
2009,06,27,10,35,17.70
2009,06,27,10,36,17.70
2009,06,27,10,37,17.70
2009,06,27,10,38,17.70
2009,06,27,10,39,17.80
2009,06,27,10,40,17.70
2009,06,27,10,41,17.70
2009,06,27,10,42,17.70
2009,06,27,10,43,17.70
2009,06,27,10,44,17.70
2009,06,27,10,45,17.70
2009,06,27,10,46,17.70
2009,06,27,10,47,17.70
2009,06,27,10,48,17.60
2009,06,27,10,49,17.60
2009,06,27,10,50,17.60
2009,06,27,10,51,17.60
2009,06,27,10,52,17.50
2009,06,27,10,53,17.50
2009,06,27,10,54,17.60
2009,06,27,10,55,17.60
2009,06,27,10,56,17.60
2009,06,27,10,57,17.60
2009,06,27,10,58,17.60
2009,06,27,10,59,17.60
2009,06,27,11,00,17.50
2009,06,27,11,01,17.50
2009,06,27,11,02,17.60
2009,06,27,11,03,17.60
2009,06,27,11,04,17.60
2009,06,27,11,05,17.60
2009,06,27,11,06,17.70
2009,06,27,11,07,17.80
2009,06,27,11,08,17.80
2009,06,27,11,09,17.90
2009,06,27,11,10,18.00
2009,06,27,11,11,18.10
2009,06,27,11,12,18.20
2009,06,27,11,13,18.20
2009,06,27,11,14,18.20
2009,06,27,11,15,18.20
2009,06,27,11,16,18.10
2009,06,27,11,17,18.00
2009,06,27,11,18,17.90
2009,06,27,11,19,18.00
2009,06,27,11,20,18.00
2009,06,27,11,21,18.00
2009,06,27,11,22,18.10
2009,06,27,11,23,18.20
2009,06,27,11,24,18.30
2009,06,27,11,25,18.40
2009,06,27,11,26,18.50
2009,06,27,11,27,18.40
2009,06,27,11,28,18.40
2009,06,27,11,29,18.50
2009,06,27,11,30,18.50
2009,06,27,11,31,18.50
2009,06,27,11,32,18.50
2009,06,27,11,33,18.60
2009,06,27,11,34,18.70
2009,06,27,11,35,18.70
2009,06,27,11,36,18.80
2009,06,27,11,37,18.90
2009,06,27,11,38,19.00
2009,06,27,11,39,19.20
2009,06,27,11,40,19.30
2009,06,27,11,41,19.40
2009,06,27,11,42,19.50
2009,06,27,11,43,19.60
2009,06,27,11,44,19.70
2009,06,27,11,45,19.80
2009,06,27,11,46,19.80
2009,06,27,11,47,19.90
2009,06,27,11,48,20.00
2009,06,27,11,49,20.10
2009,06,27,11,50,20.30
2009,06,27,11,51,20.30
2009,06,27,11,52,20.30
2009,06,27,11,53,20.40
2009,06,27,11,54,20.40
2009,06,27,11,55,20.50
2009,06,27,11,56,20.50
2009,06,27,11,57,20.60
2009,06,27,11,58,20.60
2009,06,27,11,59,20.70
2009,06,27,12,00,20.80
2009,06,27,12,01,20.80
2009,06,27,12,02,20.80
2009,06,27,12,03,20.80
2009,06,27,12,04,20.80
2009,06,27,12,05,20.80
2009,06,27,12,06,20.80
2009,06,27,12,07,20.80
2009,06,27,12,08,20.70
2009,06,27,12,09,20.80
2009,06,27,12,10,20.70
2009,06,27,12,11,20.70
2009,06,27,12,12,20.60
2009,06,27,12,13,20.60
2009,06,27,12,14,20.60
2009,06,27,12,15,20.70
2009,06,27,12,16,20.70
2009,06,27,12,17,20.70
2009,06,27,12,18,20.70
2009,06,27,12,19,20.80
2009,06,27,12,20,20.80
2009,06,27,12,21,20.80
2009,06,27,12,22,20.90
2009,06,27,12,23,20.90
2009,06,27,12,24,21.10
2009,06,27,12,25,21.10
2009,06,27,12,26,21.10
2009,06,27,12,27,21.00
2009,06,27,12,28,20.90
2009,06,27,12,29,20.90
2009,06,27,12,30,20.90
2009,06,27,12,31,20.70
2009,06,27,12,32,20.70
2009,06,27,12,33,20.50
2009,06,27,12,34,20.30
2009,06,27,12,35,20.10
2009,06,27,12,36,20.00
2009,06,27,12,37,19.90
2009,06,27,12,38,19.80
2009,06,27,12,39,19.70
2009,06,27,12,40,19.70
2009,06,27,12,41,19.80
2009,06,27,12,42,19.90
2009,06,27,12,43,20.00
2009,06,27,12,44,20.00
2009,06,27,12,45,20.20
2009,06,27,12,46,20.40
2009,06,27,12,47,20.60
2009,06,27,12,48,20.70
2009,06,27,12,49,20.80
2009,06,27,12,50,20.80
2009,06,27,12,51,20.80
2009,06,27,12,52,20.80
2009,06,27,12,53,20.60
2009,06,27,12,54,20.50
2009,06,27,12,55,20.40
2009,06,27,12,56,20.30
2009,06,27,12,57,20.20
2009,06,27,12,58,20.10
2009,06,27,12,59,20.20
2009,06,27,13,00,20.20
2009,06,27,13,01,20.40
2009,06,27,13,02,20.50
2009,06,27,13,03,20.60
2009,06,27,13,04,20.60
2009,06,27,13,05,20.60
2009,06,27,13,06,20.50
2009,06,27,13,07,20.60
2009,06,27,13,08,20.70
2009,06,27,13,09,20.70
2009,06,27,13,10,20.80
2009,06,27,13,11,20.70
2009,06,27,13,12,20.60
2009,06,27,13,13,20.50
2009,06,27,13,14,20.40
2009,06,27,13,15,20.40
2009,06,27,13,16,20.40
2009,06,27,13,17,20.30
2009,06,27,13,18,20.40
2009,06,27,13,19,20.60
2009,06,27,13,20,20.70
2009,06,27,13,21,20.70
2009,06,27,13,22,20.80
2009,06,27,13,23,21.00
2009,06,27,13,24,21.00
2009,06,27,13,25,21.10
2009,06,27,13,26,21.00
2009,06,27,13,27,21.00
2009,06,27,13,28,21.10
2009,06,27,13,29,21.20
2009,06,27,13,30,21.20
2009,06,27,13,31,21.30
2009,06,27,13,32,21.20
2009,06,27,13,33,21.10
2009,06,27,13,34,21.10
2009,06,27,13,35,21.00
2009,06,27,13,36,20.90
2009,06,27,13,37,20.90
2009,06,27,13,38,21.00
2009,06,27,13,39,21.10
2009,06,27,13,40,21.30
2009,06,27,13,41,21.40
2009,06,27,13,42,21.30
2009,06,27,13,43,21.20
2009,06,27,13,44,21.10
2009,06,27,13,45,21.00
2009,06,27,13,46,20.90
2009,06,27,13,47,20.80
2009,06,27,13,48,20.80
2009,06,27,13,49,20.80
2009,06,27,13,50,20.70
2009,06,27,13,51,20.70
2009,06,27,13,52,20.80
2009,06,27,13,53,20.80
2009,06,27,13,54,20.80
2009,06,27,13,55,20.80
2009,06,27,13,56,20.80
2009,06,27,13,57,20.80
2009,06,27,13,58,20.80
2009,06,27,13,59,20.90
2009,06,27,14,00,20.90
2009,06,27,14,01,20.90
2009,06,27,14,02,20.90
2009,06,27,14,03,20.80
2009,06,27,14,04,20.80
2009,06,27,14,05,20.70
2009,06,27,14,06,20.60
2009,06,27,14,07,20.50
2009,06,27,14,08,20.60
2009,06,27,14,09,20.60
2009,06,27,14,10,20.60
2009,06,27,14,11,20.70
2009,06,27,14,12,20.80
2009,06,27,14,13,20.80
2009,06,27,14,14,20.60
2009,06,27,14,15,20.50
2009,06,27,14,16,20.40
2009,06,27,14,17,20.30
2009,06,27,14,18,20.30
2009,06,27,14,19,20.20
2009,06,27,14,20,20.10
2009,06,27,14,21,20.10
2009,06,27,14,22,20.00
2009,06,27,14,23,19.80
2009,06,27,14,24,19.80
2009,06,27,14,25,19.80
2009,06,27,14,26,19.80
2009,06,27,14,27,19.80
2009,06,27,14,28,19.80
2009,06,27,14,29,19.90
2009,06,27,14,30,19.90
2009,06,27,14,31,19.80
2009,06,27,14,32,19.80
2009,06,27,14,33,19.80
2009,06,27,14,34,19.90
2009,06,27,14,35,19.80
2009,06,27,14,36,19.70
2009,06,27,14,37,19.60
2009,06,27,14,38,19.70
2009,06,27,14,39,19.80
2009,06,27,14,40,19.80
2009,06,27,14,41,19.90
2009,06,27,14,42,19.90
2009,06,27,14,43,20.00
2009,06,27,14,44,20.10
2009,06,27,14,45,20.10
2009,06,27,14,46,20.20
2009,06,27,14,47,20.20
2009,06,27,14,48,20.30
2009,06,27,14,49,20.30
2009,06,27,14,50,20.20
2009,06,27,14,51,20.20
2009,06,27,14,52,20.20
2009,06,27,14,53,20.10
2009,06,27,14,54,20.10
2009,06,27,14,55,20.10
2009,06,27,14,56,20.00
2009,06,27,14,57,20.00
2009,06,27,14,58,19.90
2009,06,27,14,59,19.90
2009,06,27,15,00,19.90
2009,06,27,15,01,19.90
2009,06,27,15,02,20.00
2009,06,27,15,03,20.10
2009,06,27,15,04,20.20
2009,06,27,15,05,20.20
2009,06,27,15,06,20.20
2009,06,27,15,07,20.30
2009,06,27,15,08,20.30
2009,06,27,15,09,20.30
2009,06,27,15,10,20.30
2009,06,27,15,11,20.20
2009,06,27,15,12,20.30
2009,06,27,15,13,20.50
2009,06,27,15,14,20.70
2009,06,27,15,15,20.80
2009,06,27,15,16,20.90
2009,06,27,15,17,20.90
2009,06,27,15,18,20.90
2009,06,27,15,19,20.90
2009,06,27,15,20,20.80
2009,06,27,15,21,20.80
2009,06,27,15,22,20.80
2009,06,27,15,23,20.70
2009,06,27,15,24,20.70
2009,06,27,15,25,20.60
2009,06,27,15,26,20.60
2009,06,27,15,27,20.60
2009,06,27,15,28,20.70
2009,06,27,15,29,20.70
2009,06,27,15,30,20.80
2009,06,27,15,31,20.70
2009,06,27,15,32,20.70
2009,06,27,15,33,20.80
2009,06,27,15,34,20.90
2009,06,27,15,35,21.10
2009,06,27,15,36,21.30
2009,06,27,15,37,21.30
2009,06,27,15,38,21.40
2009,06,27,15,39,21.60
2009,06,27,15,40,21.60
2009,06,27,15,41,21.50
2009,06,27,15,42,21.60
2009,06,27,15,43,21.70
2009,06,27,15,44,21.60
2009,06,27,15,45,21.50
2009,06,27,15,46,21.40
2009,06,27,15,47,21.50
2009,06,27,15,48,21.40
2009,06,27,15,49,21.40
2009,06,27,15,50,21.50
2009,06,27,15,51,21.50
2009,06,27,15,52,21.60
2009,06,27,15,53,21.60
2009,06,27,15,54,21.60
2009,06,27,15,55,21.50
2009,06,27,15,56,21.40
2009,06,27,15,57,21.40
2009,06,27,15,58,21.40
2009,06,27,15,59,21.40
2009,06,27,16,00,21.40
2009,06,27,16,01,21.30
2009,06,27,16,02,21.30
2009,06,27,16,03,21.30
2009,06,27,16,04,21.30
2009,06,27,16,05,21.50
2009,06,27,16,06,21.50
2009,06,27,16,07,21.60
2009,06,27,16,08,21.60
2009,06,27,16,09,21.60
2009,06,27,16,10,21.60
2009,06,27,16,11,21.60
2009,06,27,16,12,21.60
2009,06,27,16,13,21.70
2009,06,27,16,14,21.70
2009,06,27,16,15,21.80
2009,06,27,16,16,21.80
2009,06,27,16,17,21.80
2009,06,27,16,18,21.80
2009,06,27,16,19,21.70
2009,06,27,16,20,21.60
2009,06,27,16,21,21.70
2009,06,27,16,22,21.60
2009,06,27,16,23,21.60
2009,06,27,16,24,21.50
2009,06,27,16,25,21.50
2009,06,27,16,26,21.40
2009,06,27,16,27,21.40
2009,06,27,16,28,21.30
2009,06,27,16,29,21.40
2009,06,27,16,30,21.50
2009,06,27,16,31,21.60
2009,06,27,16,32,21.60
2009,06,27,16,33,21.70
2009,06,27,16,34,21.80
2009,06,27,16,35,21.70
2009,06,27,16,36,21.60
2009,06,27,16,37,21.60
2009,06,27,16,38,21.60
2009,06,27,16,39,21.60
2009,06,27,16,40,21.70
2009,06,27,16,41,21.70
2009,06,27,16,42,21.70
2009,06,27,16,43,21.80
2009,06,27,16,44,21.80
2009,06,27,16,45,21.80
2009,06,27,16,46,21.90
2009,06,27,16,47,21.90
2009,06,27,16,48,22.00
2009,06,27,16,49,22.00
2009,06,27,16,50,22.10
2009,06,27,16,51,22.10
2009,06,27,16,52,22.20
2009,06,27,16,53,22.20
2009,06,27,16,54,22.20
2009,06,27,16,55,22.20
2009,06,27,16,56,22.30
2009,06,27,16,57,22.40
2009,06,27,16,58,22.50
2009,06,27,16,59,22.60
2009,06,27,17,00,22.70
2009,06,27,17,01,22.80
2009,06,27,17,02,22.80
2009,06,27,17,03,22.90
2009,06,27,17,04,22.90
2009,06,27,17,05,22.90
2009,06,27,17,06,22.80
2009,06,27,17,07,22.80
2009,06,27,17,08,22.70
2009,06,27,17,09,22.70
2009,06,27,17,10,22.70
2009,06,27,17,11,22.60
2009,06,27,17,12,22.50
2009,06,27,17,13,22.30
2009,06,27,17,14,22.10
2009,06,27,17,15,21.90
2009,06,27,17,16,21.70
2009,06,27,17,17,21.60
2009,06,27,17,18,21.50
2009,06,27,17,19,21.50
2009,06,27,17,20,21.50
2009,06,27,17,21,21.40
2009,06,27,17,22,21.40
2009,06,27,17,23,21.30
2009,06,27,17,24,21.30
2009,06,27,17,25,21.30
2009,06,27,17,26,21.30
2009,06,27,17,27,21.40
2009,06,27,17,28,21.30
2009,06,27,17,29,21.30
2009,06,27,17,30,21.30
2009,06,27,17,31,21.30
2009,06,27,17,32,21.30
2009,06,27,17,33,21.30
2009,06,27,17,34,21.30